Location: Vancouver
(49.2500°N, 123.1330°W)
Time: 15:09:40
(UTC-07:00)

ISS - Visible Passes

Search period start: 27 March 2015 00:00
Search period end: 06 April 2015 00:00
Orbit: 396 x 406 km, 51.6° (Epoch: 27 March)

Date Brightness Start Highest point End Pass type
(mag) Time Alt. Az. Time Alt. Az. Time Alt. Az.
27 Mar -3.4 05:08:11 58° WNW 05:08:43 82° NNE 05:11:58 10° ESE visible
28 Mar -1.1 04:17:07 24° E 04:17:07 24° E 04:18:34 10° E visible
28 Mar -2.9 05:49:43 19° W 05:51:41 40° SSW 05:54:44 10° SE visible
29 Mar -3.2 04:58:47 57° SSE 04:58:47 57° SSE 05:01:35 10° ESE visible
30 Mar -0.4 04:07:59 12° ESE 04:07:59 12° ESE 04:08:14 10° ESE visible
30 Mar -2.1 05:40:37 22° SW 05:41:07 23° SW 05:43:43 10° SSE visible
31 Mar -1.1 04:50:04 15° SSE 04:50:04 15° SSE 04:50:50 10° SE visible
03 Apr -0.6 21:57:49 10° SW 21:57:59 11° SW 21:57:59 11° SW visible
04 Apr -2.2 21:04:45 10° SSW 21:07:26 24° SE 21:07:44 24° SE visible
04 Apr -0.3 22:40:19 10° WSW 22:40:22 10° WSW 22:40:22 10° WSW visible
05 Apr -3.4 21:46:44 10° WSW 21:49:46 64° S 21:49:46 64° S visible
